Showing default

NAXING 1, 28221

Orbit data source: Space-Track

NAXING 1, 28221 is a payload satellite owned by CASC (CN) in SSO that was launched on Sun, 18 Apr 2004 UTC via a CHANG ZHENG 2C launch vehicle from the Xichang Space Center, China (XSC). Payload-class satellites include a variety of spacecraft equipped with specific instruments for various scientific and technological missions. These include communications satellites like Starlink; space stations such as the ISS; scientific satellites like the Hubble; Earth observation satellites from companies like Planet Labs, Umbra, and HawkEye 360; GPS; miniature CubeSats for education and research; and military/defense satellites.

Loading next visibility...
Identifier
28221, 2004-012B
Orbit
SSO
Country
Flag of CNCN / PRC
Related business
Manufacturer
Tsinghua
Mission
Civil Technology
Bus & Motor
NX, Unknown motor
Mass
25 kg wet, 25 kg dry
Launch date (UTC)
2004-04-18 (22 years ago)
Launch vehicle
CHANG ZHENG 2C
Launch site
Xichang Space Center, China (XSC)
Object type
Payload
Rocket body
Debris
Shape & HBR
Box, 0.1 m
Radar Cross Section
0.060 m², Medium (>0.1 m² and < 1m²)

Expand to show TLE details & history
Last TLE update: 1 day ago

TLE from 1 day ago
0 NAXING 1
1 28221U 04012B   26170.94882422  .00001979  00000-0  14064-3 0  9991
2 28221  98.0040 198.8174 0012267  84.4154 275.8471 15.05899806207666
Epoch: 2026-06-19T22:46Z
TLE epoch observation values (Epoch: 2026-06-19T22:46:18.412Z)
Latitude
0.00003°
Longitude
-50.92979°
Altitude
550.943 km
Speed
7.587 km/s
True Right ascension
13h 15m 16s
True Declination
0° 00' 00"
Sunlit
Object was in daylight at epoch
Visualization orbit readout
Latitude
Unknown
Longitude
Unknown
Altitude
Unknown
Speed
Unknown
Apparent Right ascension
Unknown
Apparent Declination
Unknown
Sunlit
N/A
Visualization observer readout
Local Sidereal Time
10:56:25
Azimuth
Unknown
Elevation
Unknown
Doppler factor
Unknown
Orbital elements
Apogee altitude
554.25 km
Perigee altitude
537.263 km
Semi-major axis
6,923.893 km
Eccentricity
0.00123
Inclination
98.004°
RAAN
198.8174°
Arg. of periapsis
84.4154°
True anomaly
275.70724°
Mean anomaly
275.8471°
Eccentric anomaly
275.77717°
Mean motion
3.76719 °/min
Orbital period
95.56 mins
BSTAR
0.00014064
Loading maneuver chart data...
Computing Atmospheric mass density...
Loading historical data...
Loading historical data...
Loading historical data...
Loading historical data...
Loading historical data...
Loading historical data...
Loading historical data...

Documentation

Showing up to 5 results
|